QTR7L OTHH-OMDB

Flight info

Callsign QTR7L
Flight time N/A
Altitude 21000
Route ALSEM3E/34R ALSEM L305 ITBUL M677 VUTEB VUTEB4D/30L
Aircraft A359/H-SDE2E3GHIJ3J4J5LM1ORWXY/LB1D1

Departure

Time N/A
Airport Hamad International Airport (OTHH)

Arrival

Time 2026-05-06 19:14
Airport Dubai International Airport (OMDB)
Time Latitude Longitude Altitude Speed Heading
2026-05-06 18:47 25.34025 54.45947 20991 ft 463 kts 104°
2026-05-06 18:47 25.33255 54.49406 21003 ft 463 kts 104°
2026-05-06 18:47 25.32486 54.52863 20996 ft 463 kts 104°
2026-05-06 18:47 25.31716 54.56318 20987 ft 463 kts 104°
2026-05-06 18:48 25.30945 54.59775 20992 ft 463 kts 104°
2026-05-06 18:48 25.30172 54.63234 20987 ft 463 kts 104°
2026-05-06 18:48 25.29400 54.66690 20990 ft 463 kts 104°
2026-05-06 18:48 25.28625 54.70150 20991 ft 463 kts 104°
2026-05-06 18:49 25.27852 54.73599 20988 ft 463 kts 104°
2026-05-06 18:49 25.27076 54.77056 20988 ft 463 kts 104°
2026-05-06 18:49 25.26562 54.79343 20989 ft 463 kts 104°
2026-05-06 18:49 25.25786 54.82794 20994 ft 463 kts 104°
2026-05-06 18:50 25.25142 54.86273 20990 ft 462 kts 97°
2026-05-06 18:50 25.25039 54.89825 20988 ft 463 kts 85°
2026-05-06 18:50 25.25644 54.93285 20716 ft 454 kts 72°
2026-05-06 18:50 25.27001 54.96383 20150 ft 447 kts 56°
2026-05-06 18:51 25.29010 54.98914 19427 ft 426 kts 40°
2026-05-06 18:51 25.31393 55.00661 18843 ft 400 kts 26°
2026-05-06 18:51 25.33979 55.01712 18289 ft 397 kts 13°
2026-05-06 18:51 25.36715 55.01964 17675 ft 395 kts 355°
2026-05-06 18:52 25.39293 55.01204 17038 ft 381 kts 335°
2026-05-06 18:52 25.41578 54.99719 16365 ft 379 kts 329°
2026-05-06 18:52 25.43725 54.98041 15661 ft 376 kts 324°
2026-05-06 18:52 25.45827 54.96347 14951 ft 371 kts 327°
2026-05-06 18:53 25.47964 54.94773 14262 ft 366 kts 330°
2026-05-06 18:53 25.50111 54.93308 13578 ft 361 kts 332°
2026-05-06 18:53 25.52374 54.92127 12819 ft 359 kts 347°
2026-05-06 18:53 25.54827 54.91928 12091 ft 354 kts
2026-05-06 18:54 25.57255 54.92410 11366 ft 353 kts 14°
2026-05-06 18:54 25.59542 54.93271 10681 ft 351 kts 26°
2026-05-06 18:54 25.61534 54.94790 10191 ft 331 kts 44°
2026-05-06 18:54 25.62839 54.96700 9878 ft 303 kts 61°
2026-05-06 18:55 25.63528 54.98799 9639 ft 282 kts 77°
2026-05-06 18:55 25.63603 55.00993 9504 ft 289 kts 96°
2026-05-06 18:55 25.62916 55.03093 9367 ft 294 kts 120°
2026-05-06 18:55 25.61517 55.04733 9244 ft 298 kts 143°
2026-05-06 18:56 25.59614 55.05638 9018 ft 300 kts 167°
2026-05-06 18:56 25.57539 55.05613 8782 ft 301 kts 192°
2026-05-06 18:56 25.55634 55.04660 8534 ft 303 kts 216°
2026-05-06 18:56 25.54098 55.03094 8289 ft 299 kts 221°
2026-05-06 18:57 25.52324 55.01961 8065 ft 295 kts 194°
2026-05-06 18:57 25.50317 55.01955 7996 ft 290 kts 164°
2026-05-06 18:57 25.48634 55.03038 7979 ft 271 kts 133°
2026-05-06 18:57 25.47680 55.04800 7985 ft 268 kts 107°
2026-05-06 18:58 25.47437 55.06821 7989 ft 265 kts 91°
2026-05-06 18:58 25.47449 55.08864 7989 ft 265 kts 89°
2026-05-06 18:58 25.47484 55.10828 7988 ft 265 kts 89°
2026-05-06 18:58 25.47513 55.12910 7988 ft 265 kts 90°
2026-05-06 18:59 25.47531 55.14968 7988 ft 264 kts 90°
2026-05-06 18:59 25.47431 55.16647 7986 ft 265 kts 100°
2026-05-06 18:59 25.46793 55.18548 7990 ft 264 kts 116°
2026-05-06 18:59 25.45805 55.20259 7989 ft 265 kts 128°
2026-05-06 19:00 25.44598 55.21800 7991 ft 265 kts 131°
2026-05-06 19:00 25.43355 55.23305 7990 ft 265 kts 132°
2026-05-06 19:00 25.42110 55.24813 7992 ft 265 kts 131°
2026-05-06 19:00 25.40868 55.26325 7993 ft 265 kts 131°
2026-05-06 19:01 25.39628 55.27839 7991 ft 265 kts 131°
2026-05-06 19:01 25.38389 55.29357 7993 ft 265 kts 131°
2026-05-06 19:01 25.37151 55.30874 7992 ft 266 kts 131°
2026-05-06 19:01 25.35878 55.32358 7988 ft 266 kts 138°
2026-05-06 19:02 25.34366 55.33484 7991 ft 255 kts 150°
2026-05-06 19:02 25.32843 55.34386 7989 ft 245 kts 152°
2026-05-06 19:02 25.31349 55.35244 7989 ft 243 kts 152°
2026-05-06 19:02 25.30158 55.35931 7986 ft 242 kts 152°
2026-05-06 19:03 25.29247 55.36459 7923 ft 236 kts 152°
2026-05-06 19:03 25.28001 55.37184 7691 ft 235 kts 152°
2026-05-06 19:03 25.26524 55.38046 7309 ft 239 kts 152°
2026-05-06 19:03 25.25073 55.38895 7027 ft 238 kts 152°
2026-05-06 19:04 25.23612 55.39748 6892 ft 238 kts 152°
2026-05-06 19:04 25.22144 55.40607 6816 ft 238 kts 152°
2026-05-06 19:04 25.20677 55.41464 6717 ft 238 kts 152°
2026-05-06 19:04 25.19213 55.42321 6642 ft 238 kts 152°
2026-05-06 19:05 25.17753 55.43175 6552 ft 238 kts 152°
2026-05-06 19:05 25.16290 55.44030 6461 ft 237 kts 152°
2026-05-06 19:05 25.14832 55.44883 6373 ft 237 kts 152°
2026-05-06 19:05 25.13372 55.45736 6251 ft 238 kts 152°
2026-05-06 19:06 25.11927 55.46602 6022 ft 232 kts 149°
2026-05-06 19:06 25.10780 55.47750 5794 ft 217 kts 129°
2026-05-06 19:06 25.09943 55.49113 5580 ft 213 kts 123°
2026-05-06 19:06 25.09167 55.50505 5346 ft 213 kts 122°
2026-05-06 19:07 25.08399 55.51896 5098 ft 212 kts 122°
2026-05-06 19:07 25.07675 55.53316 4724 ft 211 kts 113°
2026-05-06 19:07 25.07531 55.54906 4258 ft 211 kts 79°
2026-05-06 19:07 25.08201 55.56336 3793 ft 216 kts 48°
2026-05-06 19:08 25.09354 55.57352 3249 ft 215 kts 34°
2026-05-06 19:08 25.10759 55.57882 2649 ft 216 kts
2026-05-06 19:08 25.12207 55.57550 2201 ft 211 kts 338°
2026-05-06 19:08 25.13505 55.56837 2016 ft 208 kts 330°
2026-05-06 19:09 25.14567 55.55753 1992 ft 209 kts 308°
2026-05-06 19:09 25.15340 55.54431 1978 ft 195 kts 301°
2026-05-06 19:09 25.15992 55.53210 1981 ft 178 kts 301°
2026-05-06 19:09 25.16629 55.52045 1992 ft 176 kts 301°
2026-05-06 19:10 25.17267 55.50896 1992 ft 175 kts 301°
2026-05-06 19:10 25.17902 55.49763 1998 ft 168 kts 302°
2026-05-06 19:10 25.18492 55.48712 1900 ft 155 kts 302°
2026-05-06 19:10 25.19048 55.47715 1715 ft 152 kts 302°
2026-05-06 19:11 25.19601 55.46715 1528 ft 153 kts 302°
2026-05-06 19:11 25.20150 55.45720 1320 ft 153 kts 301°
2026-05-06 19:11 25.20711 55.44706 1125 ft 152 kts 302°
2026-05-06 19:11 25.21255 55.43723 945 ft 151 kts 302°
2026-05-06 19:12 25.21800 55.42739 761 ft 150 kts 301°
2026-05-06 19:12 25.22176 55.42060 638 ft 149 kts 301°
2026-05-06 19:12 25.22633 55.41234 464 ft 149 kts 301°
2026-05-06 19:12 25.23139 55.40321 291 ft 149 kts 301°
2026-05-06 19:13 25.23678 55.39344 110 ft 147 kts 300°
2026-05-06 19:13 25.24176 55.38431 55 ft 119 kts 300°
2026-05-06 19:13 25.24467 55.37899 51 ft 60 kts 302°
2026-05-06 19:13 25.24689 55.37506 40 ft 57 kts 302°
2026-05-06 19:14 25.24789 55.37152 40 ft 44 kts 271°
2026-05-06 19:14 25.24810 55.36929 36 ft 25 kts 294°
2026-05-06 19:14 25.24860 55.36793 33 ft 14 kts 287°
2026-05-06 19:14 25.24864 55.36776 33 ft 0 kts 283°